When you browse on this site, cookies collect data to enhance your experience and personalize the content and advertising you see.
Visit our Privacy Policy to learn more. By continuing to use the site, you agree to this use of cookies and data.
  • en Suisse
  • Liste des pays
  • À 7 jours
  • Température de l'eau
  • Carte météo
  • Widgets météo
  • user-avatar
    Se connecter

    Météo par heure à Poitiers

    Ce jour, 1 Juin, Lundi

    Heure Température Précipitation Vent Pression Humidité
    00:00 +13°C° 0 mm 4 m/s 751 mmHg 90%
    01:00 +12°C° 0 mm 4 m/s 751 mmHg 91%
    02:00 +12°C° 0 mm 4 m/s 751 mmHg 93%
    03:00 +11°C° 0 mm 3 m/s 751 mmHg 94%
    04:00 +12°C° 0 mm 3 m/s 751 mmHg 92%
    05:00 +13°C° 0 mm 3 m/s 751 mmHg 90%
    06:00 +14°C° 0 mm 4 m/s 751 mmHg 88%
    07:00 +17°C° 0 mm 4 m/s 751 mmHg 83%
    08:00 +18°C° 0 mm 3 m/s 752 mmHg 78%
    09:00 +20°C° 0 mm 3 m/s 752 mmHg 73%
    10:00 +22°C° 0 mm 3 m/s 752 mmHg 69%
    11:00 +23°C° 0 mm 4 m/s 752 mmHg 65%
    12:00 +25°C° 0 mm 4 m/s 752 mmHg 61%
    13:00 +25°C° 0 mm 3 m/s 752 mmHg 60%
    14:00 +26°C° 0 mm 3 m/s 751 mmHg 60%
    15:00 +26°C° 0 mm 3 m/s 751 mmHg 59%
    16:00 +25°C° 0.1 mm 3 m/s 751 mmHg 65%
    17:00 +24°C° 0.1 mm 3 m/s 751 mmHg 71%
    18:00 +24°C° 0.1 mm 3 m/s 751 mmHg 76%
    19:00 +21°C° 0 mm 3 m/s 752 mmHg 81%
    20:00 +19°C° 0 mm 2 m/s 752 mmHg 86%
    21:00 +17°C° 0 mm 2 m/s 753 mmHg 90%
    22:00 +16°C° 0 mm 2 m/s 753 mmHg 89%
    23:00 +15°C° 0 mm 1 m/s 752 mmHg 89%

    Demain, 2 Juin, Mardi

    Heure Température Précipitation Vent Pression Humidité
    00:00 +14°C° 0 mm 1 m/s 752 mmHg 88%
    01:00 +14°C° 0 mm 1 m/s 752 mmHg 88%
    02:00 +13°C° 0 mm 1 m/s 752 mmHg 89%
    03:00 +13°C° 0 mm 2 m/s 752 mmHg 89%
    04:00 +14°C° 0 mm 1 m/s 752 mmHg 88%
    05:00 +15°C° 0 mm 1 m/s 752 mmHg 87%
    06:00 +15°C° 0 mm 1 m/s 753 mmHg 85%
    07:00 +18°C° 0 mm 1 m/s 753 mmHg 80%
    08:00 +19°C° 0 mm 2 m/s 753 mmHg 76%
    09:00 +21°C° 0 mm 2 m/s 753 mmHg 71%
    10:00 +24°C° 0 mm 2 m/s 752 mmHg 67%
    11:00 +25°C° 0 mm 3 m/s 752 mmHg 62%
    12:00 +26°C° 0 mm 3 m/s 752 mmHg 58%
    13:00 +27°C° 0 mm 3 m/s 751 mmHg 57%
    14:00 +27°C° 0 mm 3 m/s 751 mmHg 55%
    15:00 +27°C° 0 mm 2 m/s 751 mmHg 54%
    16:00 +27°C° 0 mm 2 m/s 750 mmHg 58%
    17:00 +26°C° 0 mm 2 m/s 750 mmHg 63%
    18:00 +26°C° 0 mm 2 m/s 750 mmHg 67%
    19:00 +24°C° 0 mm 2 m/s 750 mmHg 71%
    20:00 +21°C° 0 mm 2 m/s 750 mmHg 75%
    21:00 +19°C° 0 mm 2 m/s 750 mmHg 79%
    22:00 +19°C° 0 mm 1 m/s 749 mmHg 82%
    23:00 +18°C° 0 mm 1 m/s 749 mmHg 85%

    Après-demain, 3 Juin, Mercredi

    Heure Température Précipitation Vent Pression Humidité
    00:00 +18°C° 0 mm 1 m/s 749 mmHg 88%
    01:00 +16°C° 0 mm 1 m/s 748 mmHg 89%
    02:00 +16°C° 0 mm 1 m/s 748 mmHg 89%
    03:00 +14°C° 0 mm 0 m/s 747 mmHg 90%
    04:00 +15°C° 0 mm 0 m/s 747 mmHg 88%
    05:00 +16°C° 0 mm 0 m/s 747 mmHg 86%
    06:00 +17°C° 0 mm 0 m/s 746 mmHg 84%
    07:00 +21°C° 0.4 mm 1 m/s 746 mmHg 78%
    08:00 +22°C° 0.4 mm 1 m/s 746 mmHg 73%
    09:00 +24°C° 0.4 mm 2 m/s 745 mmHg 67%
    10:00 +24°C° 0.4 mm 3 m/s 745 mmHg 66%
    11:00 +25°C° 0.4 mm 3 m/s 745 mmHg 65%
    12:00 +25°C° 0.4 mm 4 m/s 744 mmHg 64%
    13:00 +23°C° 0.7 mm 4 m/s 744 mmHg 65%
    14:00 +23°C° 0.7 mm 4 m/s 743 mmHg 67%
    15:00 +23°C° 0.7 mm 4 m/s 743 mmHg 68%
    16:00 +22°C° 0.4 mm 4 m/s 742 mmHg 72%
    17:00 +21°C° 0.4 mm 3 m/s 742 mmHg 76%
    18:00 +21°C° 0.4 mm 3 m/s 742 mmHg 80%
    19:00 +19°C° 0.2 mm 3 m/s 742 mmHg 84%
    20:00 +17°C° 0.2 mm 3 m/s 742 mmHg 88%
    21:00 +14°C° 0.2 mm 3 m/s 742 mmHg 93%
    22:00 +13°C° 0 mm 3 m/s 742 mmHg 93%
    23:00 +13°C° 0 mm 3 m/s 742 mmHg 94%

    4 Juin, Jeudi

    Heure Température Précipitation Vent Pression Humidité
    00:00 +12°C° 0 mm 3 m/s 741 mmHg 95%
    01:00 +12°C° 0 mm 3 m/s 741 mmHg 96%
    02:00 +11°C° 0 mm 3 m/s 741 mmHg 97%
    03:00 +12°C° 0 mm 2 m/s 741 mmHg 97%
    04:00 +12°C° 0 mm 2 m/s 741 mmHg 97%
    05:00 +13°C° 0 mm 2 m/s 741 mmHg 96%
    06:00 +13°C° 0 mm 2 m/s 741 mmHg 95%
    07:00 +13°C° 0.2 mm 3 m/s 741 mmHg 94%
    08:00 +13°C° 0.2 mm 3 m/s 741 mmHg 92%
    09:00 +14°C° 0.2 mm 4 m/s 742 mmHg 90%
    10:00 +15°C° 0.4 mm 4 m/s 742 mmHg 86%
    11:00 +15°C° 0.4 mm 5 m/s 742 mmHg 82%
    12:00 +16°C° 0.4 mm 5 m/s 742 mmHg 78%
    13:00 +16°C° 0.4 mm 6 m/s 742 mmHg 78%
    14:00 +16°C° 0.4 mm 6 m/s 742 mmHg 77%
    15:00 +16°C° 0.4 mm 7 m/s 743 mmHg 77%
    16:00 +16°C° 0.2 mm 6 m/s 743 mmHg 78%
    17:00 +15°C° 0.2 mm 6 m/s 743 mmHg 79%
    18:00 +15°C° 0.2 mm 5 m/s 744 mmHg 80%
    19:00 +14°C° 0 mm 4 m/s 745 mmHg 83%
    20:00 +12°C° 0 mm 4 m/s 745 mmHg 85%
    21:00 +11°C° 0 mm 3 m/s 746 mmHg 87%
    22:00 +11°C° 0 mm 3 m/s 746 mmHg 89%
    23:00 +10°C° 0 mm 2 m/s 746 mmHg 90%

    5 Juin, Vendredi

    Heure Température Précipitation Vent Pression Humidité
    00:00 +9°C° 0 mm 2 m/s 746 mmHg 91%
    01:00 +9°C° 0 mm 2 m/s 746 mmHg 92%
    02:00 +9°C° 0 mm 2 m/s 747 mmHg 93%
    03:00 +8°C° 0 mm 2 m/s 747 mmHg 94%
    04:00 +9°C° 0 mm 2 m/s 747 mmHg 92%
    05:00 +9°C° 0 mm 3 m/s 747 mmHg 90%
    06:00 +10°C° 0 mm 3 m/s 747 mmHg 88%
    07:00 +12°C° 0 mm 3 m/s 747 mmHg 82%
    08:00 +13°C° 0 mm 4 m/s 748 mmHg 76%
    09:00 +15°C° 0 mm 4 m/s 748 mmHg 70%
    10:00 +15°C° 0 mm 4 m/s 748 mmHg 69%
    11:00 +15°C° 0 mm 4 m/s 748 mmHg 67%
    12:00 +17°C° 0 mm 4 m/s 748 mmHg 66%
    13:00 +17°C° 0 mm 4 m/s 748 mmHg 66%
    14:00 +17°C° 0 mm 4 m/s 748 mmHg 66%
    15:00 +17°C° 0 mm 5 m/s 748 mmHg 67%
    16:00 +17°C° 0 mm 4 m/s 748 mmHg 70%
    17:00 +17°C° 0 mm 4 m/s 748 mmHg 73%
    18:00 +17°C° 0 mm 4 m/s 748 mmHg 77%
    19:00 +15°C° 0 mm 4 m/s 748 mmHg 78%
    20:00 +15°C° 0 mm 4 m/s 749 mmHg 79%
    21:00 +14°C° 0 mm 4 m/s 749 mmHg 81%
    22:00 +14°C° 0 mm 4 m/s 749 mmHg 82%
    23:00 +14°C° 0 mm 4 m/s 749 mmHg 83%

    6 Juin, Samedi

    Heure Température Précipitation Vent Pression Humidité
    00:00 +14°C° 0 mm 4 m/s 749 mmHg 85%
    01:00 +14°C° 0 mm 4 m/s 749 mmHg 86%
    02:00 +14°C° 0 mm 4 m/s 749 mmHg 87%
    03:00 +14°C° 0 mm 4 m/s 749 mmHg 89%
    04:00 +14°C° 0 mm 3 m/s 749 mmHg 89%
    05:00 +14°C° 0 mm 3 m/s 749 mmHg 89%
    06:00 +14°C° 0 mm 3 m/s 749 mmHg 90%
    07:00 +14°C° 0.1 mm 3 m/s 749 mmHg 88%
    08:00 +16°C° 0.1 mm 3 m/s 749 mmHg 87%
    09:00 +16°C° 0.1 mm 3 m/s 749 mmHg 86%
    10:00 +17°C° 0.1 mm 3 m/s 749 mmHg 85%
    11:00 +17°C° 0.1 mm 3 m/s 749 mmHg 83%
    12:00 +18°C° 0.1 mm 3 m/s 749 mmHg 82%
    13:00 +18°C° 0.1 mm 3 m/s 749 mmHg 82%
    14:00 +18°C° 0.1 mm 3 m/s 749 mmHg 82%
    15:00 +18°C° 0.1 mm 3 m/s 749 mmHg 82%
    16:00 +18°C° 0.1 mm 2 m/s 749 mmHg 82%
    17:00 +18°C° 0.1 mm 2 m/s 748 mmHg 83%
    18:00 +18°C° 0.1 mm 2 m/s 748 mmHg 83%
    19:00 +17°C° 0 mm 2 m/s 748 mmHg 86%
    20:00 +16°C° 0 mm 2 m/s 749 mmHg 88%
    21:00 +15°C° 0 mm 2 m/s 749 mmHg 91%
    22:00 +14°C° 0 mm 2 m/s 749 mmHg 91%
    23:00 +14°C° 0 mm 2 m/s 749 mmHg 91%
    Voir plus